FENGYUN 1C DEB

Satellite information

Favourite Embed

Satellite Type and Status

DEBRISIN ORBIT

Key statistics

Satellite FENGYUN 1C DEB at a glance.

Uptime

9669

Days in orbit

Revolutions

≈ 14.4

Per day

Orbit

SSO

Sun Synchronous Orbit

Inclination

99.2

Latest

Satellite identification and parameters

Extended collection of information and parameters for FENGYUN 1C DEB.

Object identification

Identified? True

Debris? True

Object name: FENGYUN 1C DEB

International designator: 1999-025DMQ

Object number (NORAD): 35160

Object ID (CCSDS): 35160

Country: PEOPLES REPUBLIC OF CHINA (PRC)

Current information (Y/N): Y

RCS size: SMALL

Orbital parameters

Period: 100.293 minutes

Inclination: 99.1532 deg

SMA: 7150.555 km

Apoapsis: 898.931 km

Periapsis: 645.908 km

RAAN: 51.5819 deg

Eccentricy: 0.01769258

Argument of periapsis: 16.1789 deg

Mean anomaly: 344.4945 deg

Mean motion: 14.35797403 rev/day

Mean motion (dot): 0.00001135 rev/day2

B* drag term: 0.00034443391 1/REarth

Two-line elements (TLE)

Creation date: Oct. 27, 2025, 10:32 a.m.

Reference frame: TEME

Reference center: EARTH

Epoch: Oct. 27, 2025, 1:09 a.m. UTC

TLE line 0: 0 FENGYUN 1C DEB

TLE line 1: 1 35160U 99025DMQ 25300.04795067 .00001135 00000-0 34443-3 0 9999

TLE line 2: 2 35160 99.1532 51.5819 0176926 16.1789 344.4945 14.35797403642613

Live tracking on map

Real-time ground track for satellite FENGYUN 1C DEB.

In-orbit conjunctions

A list of the most updated potential collisions computed for object FENGYUN 1C DEB.

Target Orbit TCA Probability of collision Miss distance Type
SL-8 R/B LEO 2025-05-04 13:23:15 0.0001567946 147.0 (m) ROCKET BODY
TANSEI 3 DEB HEO 2025-02-02 23:41:53 0.0001627534 238.0 (m) DEBRIS

Associated space launch

Chinese polar orbiting meteorological satellite

FENGYUN 1C DEB was lifted into orbit during the mission ‘Long March 4B | Feng Yun 1C’, on board a Long March 4B space rocket.

The launch took place on May 10, 1999, 1:33 a.m. from Launch Complex 7.

For more information about the launch, click the button.

Launch to space Long March 4B | Feng Yun 1C
Long March 4B | Feng Yun 1C

Agency: N/A

Status: Launch Successful

Launch date: May 10, 1999, 1:33 a.m. UTC

Rocket: Long March 4B

Launch pad: Launch Complex 7

Location: Taiyuan Satellite Launch Center, People's Republic of China

...

Latest news about this satellite

There are no fresh news available about this satellite. Check back as we update our databases every day.


Newsletter sign-up

Weekly statistics, charts and insights to help you stay on top of the space industry.